Regional Weather Roundup
Issued by NWS

Home | Current Version | Previous Version | Text Only | Print | Product List | Glossary Off
Versions: 1 2 3 4 5 6 7 8 9 10 11 12 13 14 15 16 17 18 19 20 21 22 23 24 25 26 27 28 29 30 31 32 33 34 35 36 37 38 39 40 41 42 43 44 45 46 47 48 49 50

000
ASUS43 KFSD 300710
RWRSD

WEATHER ROUNDUP FOR SOUTH DAKOTA
NATIONAL WEATHER SERVICE SIOUX FALLS SD
200 AM CDT THU OCT 30 2014

NOTE: "FAIR" INDICATES FEW OR NO CLOUDS BELOW 12,000 FEET WITH NO
SIGNIFICANT WEATHER AND/OR OBSTRUCTIONS TO VISIBILITY.


SDZ001>005-009-010-012>017-300800-
NORTHWEST AND NORTH CENTRAL SOUTH DAKOTA

CITY           SKY/WX    TMP DP  RH WIND       PRES   REMARKS
BUFFALO          N/A     40  33  76 NW16      30.03R
FAITH            N/A     44  36  73 W15       30.05R
MOBRIDGE       CLEAR     41  35  79 NW12      29.97R
$$

SDZ012>016-024>037-041>051-057-063-072>074-300800-
SOUTHWEST AND SOUTH CENTRAL SOUTH DAKOTA

CITY           SKY/WX    TMP DP  RH WIND       PRES   REMARKS
RAPID CTY ARPT CLEAR     41  32  70 NW10      30.12R
PIERRE         CLEAR     46  35  65 W12       30.00R
CUSTER         CLEAR     45  27  49 N12G20    30.17R
ELLSWORTH AFB  CLEAR     43  35  72 NW9       30.12R
PHILIP         CLEAR     40  33  76 W10       30.08R
PINE RIDGE     CLEAR     31  25  78 S5        30.14R WCI  26
SPEARFISH      FAIR      45  32  61 W9        30.17R
WINNER         FAIR      46  30  53 W12       30.03R
$$

SDZ004>011-016>023-039-040-300800-
NORTHEAST SOUTH DAKOTA

CITY           SKY/WX    TMP DP  RH WIND       PRES   REMARKS
ABERDEEN       CLOUDY    43  36  76 CALM      29.96F
WATERTOWN      CLOUDY    43  34  70 SE7       29.96S
SISSETON         N/A     39  38  96 SE5       29.98F
$$

SDZ017-020-022-023-036>040-048>070-300800-
SOUTHEAST SOUTH DAKOTA

CITY           SKY/WX    TMP DP  RH WIND       PRES   REMARKS
SIOUX FALLS    CLOUDY    47  33  58 S10       29.97F
HURON          CLOUDY    43  33  68 SW3       29.96S
CHAMBERLAIN    CLEAR     41  30  65 NW7       30.00R
MITCHELL       PTCLDY    44  34  67 SW3       29.97S
YANKTON        PTCLDY    45  34  65 E6        29.98F
$$

ABBREVIATIONS USED IN REMARKS
   TC - TEMPERATURE IN CELSIUS
  WCI - WIND CHILL INDEX
   HX - HEAT INDEX
  VSB - VISIBILITY




USA.gov is the U.S. government's official web portal to all federal, state and local government web resources and services.